Regional Weather Roundup
Issued by NWS Mt. Holly, NJ

Home | Current Version | Previous Version | Text Only | Print | Product List | Glossary On
Versions: 1 2 3 4 5 6 7 8 9 10 11 12 13 14 15 16 17 18 19 20 21 22 23 24 25 26 27
000
ASUS41 KPHI 271511
RWRPHI

REGIONAL WEATHER ROUNDUP
NATIONAL WEATHER SERVICE MOUNT HOLLY NJ
1000 AM EST MON FEB 27 2017

NOTE:  "FAIR" INDICATES FEW OR NO CLOUDS BELOW 12,000 FEET WITH NO
SIGNIFICANT WEATHER AND/OR OBSTRUCTIONS TO VISIBILITY.

 * = STATION DOES NOT REPORT PRECIPITATION (E.G. RAIN, SNOW, ETC.)
        OR FOG.

NJZ015>026-271600-
SOUTHERN NEW JERSEY

CITY           SKY/WX    TMP DP  RH WIND       PRES   REMARKS
POMONA         MOSUNNY   48  30  49 S8        30.45S
WILDWOOD*      MOSUNNY   48  32  53 S10       30.47S
MILLVILLE      CLOUDY    48  30  49 VRB7      30.45S
WRIGHTSTOWN    PTSUNNY   48  26  42 SW10      30.42R
MOUNT HOLLY    MOSUNNY   48  25  40 SW7       30.44S
TRENTON        PTSUNNY   43  28  55 SW9       30.43R

$$
NJZ001>014-271600-
NORTHERN NEW JERSEY

CITY           SKY/WX    TMP DP  RH WIND       PRES   REMARKS
SUSSEX         CLOUDY    39  21  48 SW9G21    30.39R WCI  33
ANDOVER*         N/A     40  21  46 VRB6      30.41R
MORRISTOWN     MOSUNNY   43  27  52 W12G18    30.43R
NEWARK         PTSUNNY   45  24  43 SW14      30.43R
TETERBORO      CLOUDY    45  23  42 SW12      30.42R
CALDWELL       CLOUDY    43  23  45 VRB6      30.43R
SOMERVILLE     SUNNY     44  26  49 VRB5      30.42R
ALLAIRE*       SUNNY     48  26  42 SW9       30.45R
TOMS RIVER*    SUNNY     47  27  45 SW12      30.46R

$$
PAZ043-044-047-054-055-060>062-066>071-271600-
EASTERN PENNSYLVANIA

CITY           SKY/WX    TMP DP  RH WIND       PRES   REMARKS
PHILADELPHIA   PTSUNNY   47  27  45 SW10      30.45S
NORTH PHILA    PTSUNNY  N/A N/A N/A SW12      30.46R
BLUE BELL*     CLOUDY    43  30  61 SW6       30.43R
DOYLESTOWN     PTSUNNY   42  28  57 SW5       30.42R
QUAKERTOWN*    CLOUDY    41  32  70 W6        30.43R
PERKASIE*      FAIR      41  30  65 W10G16    30.43R
POTTSTOWN      CLOUDY    39  30  70 SW3       30.44R
LANCASTER      CLOUDY    39  32  76 CALM      30.42R
COATESVILLE    CLOUDY    43  36  75 VRB3      30.43R
READING        CLOUDY    38  26  62 CALM      30.42R
ALLENTOWN      CLOUDY    39  23  52 CALM      30.42R
MOUNT POCONO   CLOUDY    37  17  44 SW13      30.33R WCI  29
HAZLETON       CLOUDY    41  18  38 S8        30.37S
LEHIGHTON      CLOUDY    34  25  69 CALM      30.42R
WILKES BARRE   CLOUDY    39  19  44 W10       30.35R WCI  32

$$
DEZALL-MDZ008-012-015-019-020-271600-
DELAWARE AND EASTERN MARYLAND

CITY           SKY/WX    TMP DP  RH WIND       PRES   REMARKS
WILMINGTON     MOSUNNY   44  31  60 SE8       30.45R
DOVER          MOSUNNY   46  36  69 S13       30.45R
GEORGETOWN     CLOUDY    49  32  52 S9        30.47R
EASTON         PTSUNNY   50  39  66 SW12      30.49R
ABERDEEN       CLOUDY    42  36  78 W5        30.45R
PATUXENT       CLOUDY    49  33  54 S9        30.44F
OCEAN CITY     CLOUDY    49  38  65 S9        30.48R
WALLOPS ISLAND PTSUNNY   50  37  61 S14       30.49R
CAMBRIDGE      SUNNY     50  37  62 S10G16    30.46R
SALISBURY      MOSUNNY   49  35  58 S9        30.47R

$$
PAZ001-021-NYZ056-072-MDZ011-DCZ001-271600-
OTHER NEARBY LOCATIONS

CITY           SKY/WX    TMP DP  RH WIND       PRES   REMARKS
HARRISBURG     CLOUDY    39  29  67 SE6       30.41R WCI  35
STATE COLLEGE  PTSUNNY   37  19  48 CALM      30.34R
WILLIAMSPORT   CLOUDY    31  23  72 CALM      30.37F
BINGHAMTON     CLOUDY    37  16  42 SW13      30.26R WCI  29
NEW YORK CITY  MOSUNNY   43  22  43 VRB6      30.45R
BALTIMORE      PTSUNNY   44  36  73 CALM      30.44R
WASHINGTON DC  CLOUDY    46  36  68 S6        30.44S

$$




USA.gov is the U.S. government's official web portal to all federal, state and local government web resources and services.